Regional Weather Roundup
Issued by NWS

Home | Current Version | Previous Version | Graphics & Text | Print | Product List | Glossary On
Versions: 1 2 3 4 5 6 7 8 9 10 11 12 13 14 15 16 17 18 19 20 21 22 23 24 25 26 27 28 29 30 31 32 33 34 35 36 37 38 39 40 41 42 43 44 45 46 47 48 49 50
000
ASUS43 KIND 202009
RWRIN

WEATHER ROUNDUP FOR INDIANA
NATIONAL WEATHER SERVICE INDIANAPOLIS IN
400 PM EDT SAT SEP 20 2014

NOTE: "FAIR" INDICATES FEW OR NO CLOUDS BELOW 12,000 FEET WITH NO
SIGNIFICANT WEATHER AND/OR OBSTRUCTIONS TO VISIBILITY.

* - STATION DOES NOT REPORT WEATHER SUCH AS PRECIPITATION OR FOG.

+ - STATION NOT QUALITY CONTROLLED BY THE NATIONAL WEATHER SERVICE.
    USE DATA WITH CAUTION...ESPECIALLY DEWPOINT AND RELATIVE
    HUMIDITY OBSERVATIONS.

INZ001>003-010>013-019-020-202100-
NORTHWEST INDIANA

CITY           SKY/WX    TMP DP  RH WIND       PRES   REMARKS
GARY /AIRPORT/ PTSUNNY   77  68  73 W12       29.85S
KNOX *+        PTSUNNY   81  63  54 SW16G24   29.84F
LA PORTE +     CLOUDY    77  63  61 W10G24    29.85F
MICHIGAN CITY+ HVY RAIN  75  63  64 SW10G17   29.84S
MONTICELLO +   MOSUNNY   80  66  63 S18G24    29.86F
VALPARAISO     PTSUNNY   79  64  60 SW15      29.84F

$$

LMZ046-743>745-202100-
SOUTHERN LAKE MICHIGAN

STATION/POSITION TIME  TEMP WIND        PRES
                       AIR  DIR/SP/G
                 (UTC) (F)  (DEG/KT/KT) (MB)
MICHIGAN CITY    2000   74  230/ 19/ 21   N/A

$$

INZ004-005-014>016-021>024-202100-
NORTH CENTRAL INDIANA

CITY           SKY/WX    TMP DP  RH WIND       PRES   REMARKS
GOSHEN         MOSUNNY   81  64  56 SW20G30   29.85F
LOGANSPORT +   MOSUNNY   79  61  53 S20G26    29.88F
PERU/GRISSOM   MOSUNNY   80  68  66 SW22      29.88F
ROCHESTER +    MOSUNNY   81  63  54 SW18G24   29.87F
SOUTH BEND     PTSUNNY   79  64  60 SW14      29.84F
WARSAW +       MOSUNNY   79  63  57 SW9G18    29.86F

$$

INZ006>009-017-018-025>027-202100-
NORTHEAST INDIANA

CITY           SKY/WX    TMP DP  RH WIND       PRES   REMARKS
ANGOLA *+      PTSUNNY   81  75  83 S16       29.86F
AUBURN +       MOSUNNY   81  61  50 SW13G18   29.88F
FORT WAYNE     PTSUNNY   79  62  56 SW22G29   29.90F
HUNTINGTON +   MOSUNNY   79  63  57 SW16G23   29.89F

$$

INZ028-029-035-036-043>045-051>053-202100-
WEST CENTRAL INDIANA

CITY           SKY/WX    TMP DP  RH WIND       PRES   REMARKS
GREENCASTLE +  MOSUNNY   79  68  69 S8        29.95F
LAFAYETTE      MOSUNNY   80  65  59 SW14G24   29.87F
TERRE HAUTE    MOSUNNY   82  67  60 SW9       29.94F

$$

INZ030>032-037>040-046>048-054>057-064-065-202100-
CENTRAL INDIANA

CITY           SKY/WX    TMP DP  RH WIND       PRES   REMARKS
ANDERSON       MOSUNNY   79  59  50 SW16G23   29.96F
CP ATTERBURY + PTSUNNY   79  64  61 S10       29.97F
FRANKFORT +    MOSUNNY   81  64  57 SW13G24   29.92F
GREENWOOD *+   MOSUNNY   81  66  61 SW13G21   29.96
INDIANAPOLIS   CLOUDY    80  65  59 SW17G26   29.94F
-EAGLE CREEK   PTSUNNY   80  64  58 S10       29.93F
KOKOMO *+      MOSUNNY   81  63  54 SW22      29.90F
MARION +       MOSUNNY   81  59  47 SW14G21   29.92F
MT COMFORT *+  MOSUNNY   81  54  39 SW14G21   29.96F
SHELBYVILLE    PTSUNNY   81  64  56 SW15G24   29.95F
ZIONSVILLE +   MOSUNNY   79  62  56 S15G24    29.94F

$$

INZ033-034-041-042-049-050-058-059-202100-
EAST CENTRAL INDIANA

CITY           SKY/WX    TMP DP  RH WIND       PRES   REMARKS
MUNCIE         SUNNY     80  59  48 SW15G26   29.93F

$$

INZ060-061-067>069-081>083-085>088-202100-
SOUTHWEST INDIANA

CITY           SKY/WX    TMP DP  RH WIND       PRES   REMARKS
EVANSVILLE     MOSUNNY   85  64  49 SW16      29.98F
WASHINGTON +   MOSUNNY   84  68  58 SW10G17   29.95F

$$

INZ062-063-066-070>080-084-089>092-202100-
SOUTH CENTRAL AND SOUTHEAST INDIANA

CITY           SKY/WX    TMP DP  RH WIND       PRES   REMARKS
BEDFORD +      PTSUNNY   81  63  54 SW12      29.98
BLOOMINGTON    MOSUNNY   80  66  62 SW9       29.97F
NORTH VERNON + PTSUNNY   82  61  47 SW10      29.98

$$



USA.gov is the U.S. government's official web portal to all federal, state and local government web resources and services.